Location: ??????
(55.0357°N, 38.6195°E)
Time: 18:44:44
(UTC+00:00)

Cosmos 1633 Rocket - Pass Details

Date: 14 April 2024
Orbit: 605 x 619 km, 82.5° (Epoch: 27 May)

Event Time Altitude Azimuth Distance (km) Brightness Sun altitude
Rises 00:30:08 0° 351° (N) 2,877 7.0 -14.9°
Reaches altitude 10° 00:32:25 10° 357° (N) 1,969 6.2 -14.6°
Maximum altitude 00:36:39 49° 73° (ENE) 795 4.0 -14.2°
Drops below altitude 10° 00:40:51 10° 148° (SSE) 1,959 5.5 -13.7°
Sets 00:43:08 0° 154° (SSE) 2,861 6.3 -13.5°
